Tracking 25620 objects as of 18-May-2022
HD Live streaming from Space Station
objects crossing your sky now

STARLINK 1031

Track STARLINK 1031 now!
10-day predictions
STARLINK 1031 is classified as:


NORAD ID: 44736
Int'l Code: 2019-074Z
Perigee: 553.4 km
Apogee: 555.3 km
Inclination: 53.1 °
Period: 95.6 minutes
Semi major axis: 6925 km
RCS: Unknown
Launch date: November 11, 2019
Source: United States (US)
Launch site: AIR FORCE EASTERN TEST RANGE (AFETR)
aabbcc
Your satellite tracking list
Your tracking list is empty




NASA's NSSDC Master Catalog

Two Line Element Set (TLE):
1 44736U 19074Z   22138.53377609  .00002159  00000-0  16379-3 0  9997
2 44736  53.0556 331.7715 0001432  71.4995 288.6149 15.06401334138795
Source of the keplerian elements: AFSPC